sat.trackr.live / text

‹ back to catalog

COSMOS 2545 (760)

NORAD 45358 · 2020-018A

PAYLOAD ACTIVE UNKNOWN

§ Identity

Operator
Country
CIS
Launch date
2020-03-16
Launch site
PLMSC
Launch vehicle
Mass (kg)
RCS (m²)

Purposes: nav

External: N2YO · Heavens-Above · Gunter

§ Orbital elements

Epoch: 2026-09-20T00:21:16.228224Z

Period
675.73 min
Inclination
64.2932°
Eccentricity
0.0011946
Mean motion
2.13102750 rev/d
Perigee alt
19,099.4 km
Apogee alt
19,160.3 km
Semi-major
25,508.0 km
B*
0.0000e+0
RAAN
309.0810°
Arg perigee
236.7664°
Mean anomaly
123.1908°
Rev number
5,068

§ Raw data

COSMOS 2545 (760)1 45358U 20018A   26263.01477116 -.00000022  00000+0  00000+0 0  99952 45358  64.2932 309.0810 0011946 236.7664 123.1908  2.13102750 50683

JSON: /api/v1/satellites/45358 · /tle

For live sub-satellite position, see the globe view (requires WebGL).

§ Visibility from observer

Set your observer location to see the next 7 days of passes ≥ 10°. The values pass through the URL so the page stays shareable.

No JS? Fill the form by hand. The geolocation button needs JavaScript.